Bay Area Logo

Salinas, CA Condo Real Estate Listings

34 Total Real Estate Listings * Click on table heading to sort
Date Posted Property Type Style Address Price Living Area Lot Size Price/Sq Ft.
2018-03-26 Condo 1051 Padre Drive Salinas, CA 93901 $378,800 1,597 sq. ft. 54,014 sq. ft. $237
2018-03-26 Condo 2394 Main Street Salinas, CA 93906 $240,000 932 sq. ft. 1,307 sq. ft. $258
2018-03-22 Condo 1840 Cherokee Drive Salinas, CA 93906 $365,000 1,621 sq. ft. 1,742 sq. ft. $225
2018-03-16 Condo 405 Tyler Place Salinas, CA 93906 $240,000 884 sq. ft. 871 sq. ft. $271
2018-03-09 Condo Traditional 2442 Main Street Salinas, CA 93906 $229,000 932 sq. ft. 1,307 sq. ft. $246
2018-03-08 Condo 2420 Main Street Salinas, CA 93906 $249,000 1,151 sq. ft. 1,307 sq. ft. $216
2018-03-07 Condo Traditional 2414 Main Street Salinas, CA 93906 $239,000 1,151 sq. ft. 871 sq. ft. $208
2018-02-28 Condo Traditional 19201 Creekside Lane Salinas, CA 93908 $459,900 1,510 sq. ft. 1,742 sq. ft. $305
2018-02-21 Condo 1310 Primavera Street Salinas, CA 93901 $413,500 1,275 sq. ft. 1,742 sq. ft. $324
2018-02-20 Condo 42 Stone Street Salinas, CA 93901 $230,000 786 sq. ft. 871 sq. ft. $293
2018-02-20 Condo Ranch 25474 John Steinbeck Trail Salinas, CA 93908 $949,000 2,649 sq. ft. 7,841 sq. ft. $358
2018-02-20 Condo 110 Rossi Street Salinas, CA 93901 $240,000 870 sq. ft. 142,877 sq. ft. $276
2018-02-19 Condo 1051 Padre Drive Salinas, CA 93901 $419,000 1,287 sq. ft. $326
2018-02-12 Condo 106 Rossi Street Salinas, CA 93901 $220,000 650 sq. ft. $338
2018-01-31 Condo 1863 Cherokee Drive Salinas, CA 93906 $257,800 1,083 sq. ft. 436 sq. ft. $238
2018-01-30 Condo 158 Madeira Avenue Salinas, CA 93905 $225,000 960 sq. ft. 871 sq. ft. $234
2018-01-21 Condo 1787 Cherokee Drive Salinas, CA 93906 $278,800 1,155 sq. ft. 436 sq. ft. $241
2018-01-03 Condo 104 Rossi Street Salinas, CA 93901 $212,000 639 sq. ft. 436 sq. ft. $332
2017-11-21 Condo 1067 Padre Drive Salinas, CA 93901 $379,000 1,130 sq. ft. 54,014 sq. ft. $335
2017-11-17 Condo 158 Kern Street Salinas, CA 93905 $199,000 946 sq. ft. 871 sq. ft. $210
2017-11-08 Condo Mediterranean 709 Garner Avenue Salinas, CA 93905 $229,000 864 sq. ft. 871 sq. ft. $265
2017-10-30 Condo 417 Tyler Place Salinas, CA 93906 $263,000 932 sq. ft. 871 sq. ft. $282
2017-06-21 Condo 409 Tyler Pl O Salinas, CA 93906 $229,000 884 sq. ft. 767 sq. ft. $259
2017-06-21 Condo 405 Tyler Pl F Salinas, CA 93906 $249,900 932 sq. ft. 976 sq. ft. $268
2017-06-07 Condo 23799 Monterey Salinas Hwy 9 Salinas, CA 93908 $645,000 1,403 sq. ft. 2,335 sq. ft. $460
2017-06-07 Condo 919 Acosta Plz 32 Salinas, CA 93905 $190,000 1,034 sq. ft. 862 sq. ft. $184
2017-06-06 Condo 144 Nissen Rd 4 Salinas, CA 93901 $490,000 1,341 sq. ft. 2,940 sq. ft. $365
2017-06-03 Condo 19219 Creekside Ln Salinas, CA 93908 $530,000 1,510 sq. ft. 1,786 sq. ft. $351
2017-05-08 Condo 1021 Polk St 19 Salinas, CA 93906 $365,000 1,359 sq. ft. 1,437 sq. ft. $269
2017-04-27 Condo 1253 Nogal Dr 17d Salinas, CA 93905 $314,900 1,513 sq. ft. 1,176 sq. ft. $208
2017-03-24 Condo 1295 Nogal Dr B Salinas, CA 93905 $308,000 1,513 sq. ft. 1,133 sq. ft. $204
2017-03-15 Condo Traditional 1310 Primavera St 110 Salinas, CA 93901 $397,000 1,580 sq. ft. 1,568 sq. ft. $251
2017-03-07 Condo Contemporary 1811 Cherokee Dr 1 Salinas, CA 93906 $208,000 924 sq. ft. 828 sq. ft. $225
2016-05-05 Condo Traditional 916 Acosta Plz 20 Salinas, CA 93905 $190,000 1,034 sq. ft. 784 sq. ft. $184